User: anonymous   Login
Location: Nairn
(57.5833°N, 3.8667°W)
Time: 19:30:31
(UTC+00:00)
Language:

Cosmos 1051 Rocket - Orbit

View from above orbital plane
View from above orbital plane
View from above satellite
View from above satellite

Ground track
Ground track

The orbit data is extracted from the following two-line orbital elements,

1 11136U 78109J   22016.10369405  .00000053  00000-0  64936-3 0  9995
2 11136  74.0155  31.9303 0131610 274.9690  83.6330 12.19161127919131
Epoch (UTC): 16 January 2022 02:29:19
Eccentricity: 0.0131610
inclination: 74.0155°
perigee height: 1491 km
apogee height: 1701 km
right ascension of ascending node: 31.9303°
argument of perigee: 274.9690°
revolutions per day: 12.19161127
mean anomaly at epoch: 83.6330°
orbit number at epoch: 91913

The dashed part of the orbit path shows where the satellite is in the earth's shadow,  

DLR